Regional Weather Roundup
Issued by NWS

Home | Current Version | Previous Version | Graphics & Text | Print | Product List | Glossary On
Versions: 1 2 3 4 5 6 7 8 9 10 11 12 13 14 15 16 17 18 19 20 21 22 23 24 25 26 27 28 29 30 31 32 33 34 35 36 37 38 39 40 41 42 43 44 45 46 47 48 49 50
000
ASUS43 KLOT 291402
RWRIL

ILLINOIS REGIONAL WEATHER ROUNDUP
NATIONAL WEATHER SERVICE CHICAGO/ROMEOVILLE IL
900 AM CDT FRI MAY 29 2015

NOTE: "FAIR" INDICATES FEW OR NO CLOUDS BELOW 12,000 FEET WITH NO
SIGNIFICANT WEATHER AND/OR OBSTRUCTIONS TO VISIBILITY.

* THESE STATIONS ARE NOT UNDER NWS QUALITY CONTROL. THEY ALSO MAY NOT
  REPORT WEATHER SUCH AS PRECIPITATION OR FOG.

ILZ001-002-007-009-015-016-024-291500-
NORTHWEST ILLINOIS

CITY           SKY/WX    TMP DP  RH WIND       PRES   REMARKS
MOLINE         LGT RAIN  73  65  75 S10       29.97S
STERLING*      PTSUNNY   73  64  73 S6        30.00S
$$

ILZ003-004-008-010-011-017-018-291500-
NORTH CENTRAL ILLINOIS

CITY           SKY/WX    TMP DP  RH WIND       PRES   REMARKS
ROCKFORD       PTSUNNY   77  64  64 S16       30.02F
FREEPORT*      PTSUNNY   72  65  77 S14       30.02R
$$

ILZ005-006-012>014-019>023-291500-
NORTHEAST ILLINOIS

CITY           SKY/WX    TMP DP  RH WIND       PRES   REMARKS
CHICAGO-OHARE  PTSUNNY   75  65  70 S7        30.04R
CHICAGO-MIDWAY PTSUNNY   78  66  66 SW12      30.04S HX  80
AURORA         MOSUNNY   76  65  68 S12       30.04S
WAUKEGAN       PTSUNNY   74  65  73 S9        30.03R
DUPAGE AIRPORT SUNNY     76  66  71 S10       30.03F
WHEELING       MOSUNNY   76  65  68 S8        30.05S
NORTHERLY ISL    N/A     75  63  66 S9          N/A
$$

LMZ740>746-291500-
SOUTHERN LAKE MICHIGAN

STATION/POSITION SKY/WX   TEMP    WIND        PRES    VSBY  WAVE
                          AIR SEA DIR/SP/G                  HT/PER
                          (F)     (DEG/KT/KT) (MB)    (MI)  (FT/S)
SOUTHERN BUOY              47 38  150/ 12/ 12 1017.7          1
HARRISON CRIB              68     170/ 13/ 14   N/A
BURNHAM HARBOR             73     190/  8/  9   N/A
CALUMET HARBOR             72     170/  8/ 13   N/A
BURNS HARBOR               72     180/  8/ 14 1018.3R
MICHIGAN CITY              71     150/ 10/ 14   N/A
MICHIGAN CITY 6N           64 55  180/  8/ 10   N/A           1
ST. JOSEPH                 64 56  200/ 10/ 10   N/A           1/ 2
$$

ILZ025>027-034>036-040-047-049-050-058-095>099-291500-
WEST-CENTRAL ILLINOIS

CITY           SKY/WX    TMP DP  RH WIND       PRES   REMARKS
QUINCY         CLOUDY    69  65  86 SW12      30.00R
MACOMB*        CLOUDY    70  66  87 S9        30.01S
$$

ILZ028>032-037-038-041>044-048-051>054-059>061-291500-
CENTRAL ILLINOIS

CITY           SKY/WX    TMP DP  RH WIND       PRES   REMARKS
BLOOMINGTON    HVY RAIN  72  68  88 S16       30.06S FOG
DECATUR        CLOUDY    73  66  78 S10       30.07R
PEORIA         CLOUDY    75  66  73 S14G21    30.02S
SPRINGFIELD    PTSUNNY   75  68  78 S10       30.03S
TAYLORVILLE    NOT AVBL
$$

ILZ033-039-045-046-055>057-062-063-291500-
EAST-CENTRAL ILLINOIS

CITY           SKY/WX    TMP DP  RH WIND       PRES   REMARKS
CHAMPAIGN      MOSUNNY   77  66  68 S14       30.08S
$$

ILZ079-100>102-291500-
SOUTHWEST ILLINOIS

CITY           SKY/WX    TMP DP  RH WIND       PRES   REMARKS
ALTON          PTSUNNY   73  72  94 S9        30.05R
BELLEVILLE     CLOUDY    74  71  87 SE3       30.05R
CAHOKIA*       MOSUNNY   77  67  71 SW9       30.04S
SPARTA*        MOSUNNY   73  68  83 S10       30.08S
$$

ILZ064>066-069>071-074>076-080>082-084>086-088>090-092>094-291500-
SOUTH-CENTRAL ILLINOIS

CITY           SKY/WX    TMP DP  RH WIND       PRES   REMARKS
CARBONDALE     PTSUNNY   74  67  78 S10       30.09R
MARION         PTSUNNY   75  70  83 MISG      30.11R
MT. VERNON     PTSUNNY   72  64  78 S8        30.11S
SALEM*         PTSUNNY   76  67  73 S12       30.09S
$$

ILZ067-068-072-073-078-083-087-091-291500-
SOUTHEAST ILLINOIS

CITY           SKY/WX    TMP DP  RH WIND       PRES   REMARKS
LAWRENCEVILLE  CLOUDY    76  66  71 S12       30.12R
HARRISBURG*    PTSUNNY   75  69  82 S9        30.12S
ROBINSON*      SUNNY     75  66  72 S9        30.12R
$$

ABBREVIATIONS USED IN REMARKS
   TC - TEMPERATURE IN CELSIUS
  WCI - WIND CHILL INDEX
   HX - HEAT INDEX
  VSB - VISIBILITY
$$



USA.gov is the U.S. government's official web portal to all federal, state and local government web resources and services.